This is the latest recevied weather packets stored in our database for station/object DB0BGL. If no packets are shown the sender has not sent any weather packets the latest 10 day(s).
| Time | Temp. | Humidity | Pressure | Rain* | Wind** | Luminosity | Snow |
|---|---|---|---|---|---|---|---|
| 1777896151 | 18.33° C | 42% | 0 hPa | 0 mm | - | - | - |
| 1777895550 | 18.33° C | 43% | 0 hPa | 0 mm | - | - | - |
| 1777894349 | 20° C | 39% | 0 hPa | 0 mm | - | - | - |
| 1777893749 | 18.89° C | 42% | 0 hPa | 0 mm | - | - | - |
| 1777893151 | 17.22° C | 45% | 0 hPa | 0 mm | - | - | - |
| 1777893148 | 17.22° C | 45% | 0 hPa | 0 mm | - | - | - |
| 1777890746 | 15° C | 52% | 0 hPa | 0 mm | - | - | - |
| 1777889544 | 15.56° C | 51% | 0 hPa | 0 mm | - | - | - |
| 1777888944 | 15° C | 54% | 0 hPa | 0 mm | - | - | - |
| 1777875833 | 13.89° C | 49% | 0 hPa | 0 mm | - | - | - |
| 1777875232 | 15° C | 47% | 0 hPa | 0 mm | - | - | - |
| 1777814785 | 22.22° C | 19% | 0 hPa | 0 mm | - | - | - |
| 1777809977 | 20° C | 26% | 0 hPa | 0 mm | - | - | - |
| 1777809377 | 19.44° C | 100% | 0 hPa | 0 mm | - | - | - |
| 1777808178 | 18.89° C | 31% | 0 hPa | 0 mm | - | - | - |
| 1777807579 | 18.89° C | 31% | 0 hPa | 0 mm | - | - | - |
| 1777806977 | 17.78° C | 34% | 0 hPa | 0 mm | - | - | - |
| 1777805774 | 16.11° C | 37% | 0 hPa | 0 mm | - | - | - |
| 1777804572 | 14.44° C | 100% | 0 hPa | 0 mm | - | - | - |
| 1777803973 | 14.44° C | 41% | 0 hPa | 0 mm | - | - | - |
| 1777803371 | 14.44° C | 40% | 0 hPa | 0 mm | - | - | - |
| 1777802819 | 15° C | 100% | 0 hPa | 0 mm | - | - | - |
| 1777802769 | 15° C | 100% | 0 hPa | 0 mm | - | - | - |
| 1777802169 | 15.56° C | 38% | 0 hPa | 0 mm | - | - | - |
| 1777800969 | 16.67° C | 34% | 0 hPa | 0 mm | - | - | - |
* Rain latest hour (hover to see other rain measurements)
** Current wind speed in m/s (hover to see current wind gust speed)